Regional Weather Roundup
Issued by NWS

Home | Current Version | Previous Version | Text Only | Print | Product List | Glossary On
Versions: 1 2 3 4 5 6 7 8 9 10 11 12 13 14 15 16 17 18 19 20 21 22 23 24 25 26 27 28 29 30 31 32 33 34 35 36 37 38 39 40 41 42 43 44 45 46 47 48 49 50
000
ASUS43 KDMX 240407
RWRIA

WEATHER ROUNDUP FOR IOWA
NATIONAL WEATHER SERVICE DES MOINES IA
1100 PM CDT SAT MAY 23 2015

NOTE: "FAIR" INDICATES FEW OR NO CLOUDS BELOW 12,000 FEET WITH NO
SIGNIFICANT WEATHER AND/OR OBSTRUCTIONS TO VISIBILITY.

* - THESE STATIONS ARE NOT NWS STATIONS...THUS NOT UNDER NWS
QUALITY CONTROL.  THEY ALSO DO NOT REPORT WEATHER SUCH
AS PRECIPITATION OR FOG.

IAZ001>003-012>014-020>022-031>034-043>046-240500-
   NORTHWEST IOWA

CITY           SKY/WX    TMP DP  RH WIND       PRES   REMARKS
CARROLL *      CLOUDY    64  57  77 SE8       30.08F
CHEROKEE *     CLOUDY    61  57  88 CALM      30.08F
DENISON *      CLOUDY    63  61  94 SE5       30.05F
LE MARS *      CLOUDY    63  57  82 CALM      30.08F
ORANGE CITY *  CLOUDY    61  55  82 CALM      30.08F
SHELDON *      CLOUDY    63  55  77 CALM      30.08F
SIOUX CITY     LGT RAIN  61  57  87 E8        30.06F
SPENCER        CLOUDY    63  56  78 E5        30.10S
STORM LAKE *   CLOUDY    63  55  77 SE5       30.09F
$$

IAZ055>058-069>071-079>083-090>094-240500-
   SOUTHWEST IOWA

CITY           SKY/WX    TMP DP  RH WIND       PRES   REMARKS
ATLANTIC *     CLOUDY    63  61  94 CALM      30.05F
AUDUBON *      RAIN      63  57  82 E5        30.08F
CLARINDA *     MOCLDY    63  61  94 SE14G25   30.02F
COUNCIL BLFS * CLOUDY    61  61 100 E12G17    30.01F
CRESTON *      PTCLDY    61  59  94 SE9       30.07F
HARLAN  *      CLOUDY    63  63 100 E6        30.09F FOG
LAMONI         CLOUDY    62  58  86 S3        30.09F
RED OAK *      CLOUDY    63  61  94 E10       30.03S
SHENANDOAH *   CLOUDY    63  61  94 E12       30.01S
$$

IAZ047>049-059>061-072>074-084-240500-
   CENTRAL IOWA

CITY           SKY/WX    TMP DP  RH WIND       PRES   REMARKS
AMES           CLOUDY    66  53  63 SE6       30.10S
ANKENY *       CLOUDY    66  55  68 SE3       30.09F
CHARITON *     CLOUDY    64  55  72 SE3       30.10F
DES MOINES     CLOUDY    69  53  56 SE7       30.09F
GRINNELL*      CLOUDY    66  52  59 SE6       30.11F
KNOXVILLE *    CLOUDY    66  54  63 SE7       30.09F
MARSHALLTOWN   CLOUDY    66  51  58 SE8       30.10F
PELLA *        CLOUDY    66  57  72 SE5       30.11S
PERRY *        CLOUDY    65  55  69 SE6       30.09S
$$

IAZ004>006-015-016-023>025-035-036-240500-
   NORTH CENTRAL IOWA

CITY           SKY/WX    TMP DP  RH WIND       PRES   REMARKS
ALGONA *       CLOUDY    63  59  88 CALM      30.11S
CLARION *      CLOUDY    66  54  63 SE5       30.11R
ESTHERVILLE    CLOUDY    63  54  72 S7        30.11R
FORT DODGE *   CLOUDY    64  55  72 SE3       30.12R
MASON CITY     CLOUDY    65  52  62 CALM      30.13R
FOREST CITY *  CLOUDY    59  57  94 CALM      30.12S
IOWA FALLS *   CLOUDY    66  52  59 SE8       30.12S
$$

IAZ007>011-017>019-026>030-037>042-050>054-066-240500-
   NORTHEAST IOWA

CITY           SKY/WX    TMP DP  RH WIND       PRES   REMARKS
CEDAR RAPIDS   CLOUDY    65  50  58 SE6       30.13F
CHARLES CITY * CLOUDY    66  46  48 SE6       30.14R
CLINTON *      MOCLDY    64  46  52 SE7       30.19S
DECORAH *      MOCLDY    64  48  55 SE3       30.14S
DUBUQUE        MOCLDY    62  50  64 SE8       30.17S
MONTICELLO *   CLEAR     61  52  72 E3        30.14F
OELWEIN *      CLOUDY    64  52  63 SE6       30.14F
WATERLOO       CLOUDY    67  48  50 S6        30.12F
$$

IAZ064-065-067-068-078-240500-
   EAST CENTRAL IOWA

CITY           SKY/WX    TMP DP  RH WIND       PRES   REMARKS
DAVENPORT      MOCLDY    63  47  55 SE7       30.16S
IOWA CITY      CLOUDY    66  49  54 CALM      30.14F
MT. PLEASANT * CLOUDY    63  52  67 E7        30.12F
MUSCATINE *    CLEAR     63  54  72 CALM      30.14F
QUAD CITIES    CLOUDY    61  49  64 E3        30.14F
$$

IAZ062-063-075>077-085>089-095>099-240500-
   SOUTHEAST IOWA

CITY           SKY/WX    TMP DP  RH WIND       PRES   REMARKS
BURLINGTON     CLOUDY    68  51  54 SE8       30.12F
FAIRFIELD *    MOCLDY    64  52  63 E3        30.12S
FORT MADISON * CLEAR     66  52  59 SE7       30.13F
KEOKUK *       PTCLDY    64  55  72 SE5       30.12S
OSKALOOSA *      N/A     66  52  59 SE7       30.11F
CENTERVILLE *  MOCLDY    63  63 100 SE7       30.12F
OTTUMWA        CLOUDY    65  53  65 E6        30.11F
WASHINGTON *   PTCLDY    64  50  59 E8        30.13F
$$

ABBREVIATIONS USED IN REMARKS
   TC - TEMPERATURES IN CELSIUS
  WCI - WIND CHILL INDEX
   HX - HEAT INDEX
  VSB - VISIBILITY
$$



USA.gov is the U.S. government's official web portal to all federal, state and local government web resources and services.